Clinton, OK

5:25 AM CDT on April 24, 2017 (GMT -0500)
Clinton Municipal

Weather History for KCLK - March, 2013

Change the Weather History Date:

Tuesday, March 5, 2013

  Actual Average (KCSM) Record (KCSM)
Temperature  
Mean Temperature 39 °F -  
Max Temperature 50 °F 54 °F 87 °F (2009)
Min Temperature 28 °F 31 °F 17 °F (2015)
Degree Days  
Heating Degree Days 26    
Moisture  
Dew Point 16 °F    
Average Humidity 42    
Maximum Humidity 74    
Minimum Humidity 20    
Precipitation  
Precipitation 0.00 in - - ()
Sea Level Pressure  
Sea Level Pressure 30.32 in    
Wind  
Wind Speed 16 mph (NNW)    
Max Wind Speed 24 mph    
Max Gust Speed 32 mph    
Visibility 10 miles    
Events      
Averages and records for this station are not official NWS values.
T = Trace of Precipitation, MM = Missing Value Source: NWS Daily Summary

Daily Weather History Graph

Daily Weather History Graph

Search for Another Location

Airport or City:

Trip Planner

Search our weather history database for the weather conditions in past years. The results will help you decide how hot, cold, wet, or windy it might be!

Date:

Astronomy

Mar. 05, 2013 Rise Set
Actual Time 6:59 AM CST 6:34 PM CST
Civil Twilight 6:34 AM CST 7:00 PM CST
Nautical Twilight 6:04 AM CST 7:29 PM CST
Astronomical Twilight 5:35 AM CST 7:59 PM CST
Moon 2:04 AM CST (3/5) 12:24 PM CST (3/5)
Length of Visible Light 12h 26m
Length of Day
11h 35m
Last Quarter, 40% of the Moon is Illuminated
Mar 5
Last Quarter
Mar 11
New
Mar 19
First Quarter
Mar 27
Full
Apr 2
Last Quarter

Hourly Weather History & Observations

Time (CST) Temp. Windchill Dew Point Humidity Pressure Visibility Wind Dir Wind Speed Gust Speed Precip Events Conditions
12:15 AM 41.0 °F 31.1 °F 30.2 °F 65% 30.14 in 10.0 mi North 23.0 mph 27.6 mph N/A   Overcast
12:35 AM 41.0 °F 31.6 °F 30.2 °F 65% 30.14 in 10.0 mi North 20.7 mph 26.5 mph N/A   Overcast
12:55 AM 41.0 °F 32.2 °F 30.2 °F 65% 30.14 in 10.0 mi North 18.4 mph 27.6 mph N/A   Mostly Cloudy
1:15 AM 41.0 °F 32.8 °F 28.4 °F 61% 30.13 in 10.0 mi North 16.1 mph 26.5 mph N/A   Mostly Cloudy
1:35 AM 41.0 °F 32.5 °F 28.4 °F 61% 30.15 in 10.0 mi North 17.3 mph 21.9 mph N/A   Overcast
1:55 AM 41.0 °F 33.1 °F 26.6 °F 57% 30.17 in 10.0 mi North 15.0 mph 23.0 mph N/A   Mostly Cloudy
2:15 AM 41.0 °F 31.6 °F 24.8 °F 53% 30.19 in 10.0 mi North 20.7 mph 25.3 mph N/A   Scattered Clouds
2:35 AM 41.0 °F 31.4 °F 21.2 °F 45% 30.19 in 10.0 mi North 21.9 mph 28.8 mph N/A   Scattered Clouds
2:55 AM 41.0 °F 31.1 °F 21.2 °F 45% 30.20 in 10.0 mi North 23.0 mph 27.6 mph N/A   Clear
3:35 AM 37.4 °F 27.5 °F 19.4 °F 48% 30.21 in 10.0 mi NNW 18.4 mph 25.3 mph N/A   Clear
3:55 AM 37.4 °F 26.1 °F 14.0 °F 38% 30.22 in 10.0 mi NNW 24.2 mph 32.2 mph N/A   Clear
4:15 AM 37.4 °F 26.1 °F 12.2 °F 36% 30.23 in 10.0 mi North 24.2 mph 31.1 mph N/A   Clear
4:35 AM 35.6 °F 25.2 °F 14.0 °F 41% 30.24 in 10.0 mi NNW 18.4 mph 28.8 mph N/A   Clear
4:55 AM 35.6 °F 25.2 °F 12.2 °F 38% 30.25 in 10.0 mi NNW 18.4 mph 26.5 mph N/A   Clear
5:15 AM 33.8 °F 21.9 °F 12.2 °F 41% 30.26 in 10.0 mi NNW 21.9 mph 31.1 mph N/A   Clear
5:35 AM 33.8 °F 22.5 °F 14.0 °F 44% 30.27 in 10.0 mi North 19.6 mph 26.5 mph N/A   Clear
5:55 AM 32.0 °F 21.6 °F 14.0 °F 48% 30.29 in 10.0 mi North 15.0 mph 19.6 mph N/A   Clear
6:15 AM 32.0 °F 22.5 °F 15.8 °F 51% 30.31 in 10.0 mi NNW 12.7 mph - N/A   Clear
6:35 AM 32.0 °F 21.6 °F 17.6 °F 55% 30.31 in 10.0 mi North 15.0 mph - N/A   Clear
6:55 AM 32.0 °F 22.1 °F 17.6 °F 55% 30.32 in 10.0 mi NNW 13.8 mph - N/A   Clear
7:15 AM 32.0 °F 22.5 °F 17.6 °F 55% 30.33 in 10.0 mi NNW 12.7 mph - N/A   Clear
7:35 AM 32.0 °F 22.5 °F 17.6 °F 55% 30.35 in 10.0 mi NNW 12.7 mph - N/A   Clear
7:55 AM 32.0 °F 22.1 °F 17.6 °F 55% 30.36 in 10.0 mi NNW 13.8 mph - N/A   Clear
8:15 AM 32.0 °F 20.1 °F 14.0 °F 48% 30.36 in 10.0 mi North 19.6 mph 23.0 mph N/A   Clear
8:35 AM 33.8 °F 22.8 °F 14.0 °F 44% 30.36 in 10.0 mi NNW 18.4 mph - N/A   Clear
8:55 AM 33.8 °F 23.5 °F 12.2 °F 41% 30.38 in 10.0 mi North 16.1 mph 27.6 mph N/A   Clear
9:15 AM 35.6 °F 25.5 °F 12.2 °F 38% 30.38 in 10.0 mi North 17.3 mph 25.3 mph N/A   Clear
9:35 AM 35.6 °F 25.5 °F 14.0 °F 41% 30.39 in 10.0 mi NNW 17.3 mph 21.9 mph N/A   Clear
9:55 AM 37.4 °F 27.5 °F 14.0 °F 38% 30.39 in 10.0 mi NNW 18.4 mph 23.0 mph N/A   Clear
10:15 AM 37.4 °F 27.5 °F 12.2 °F 36% 30.40 in 10.0 mi North 18.4 mph 24.2 mph N/A   Clear
10:35 AM 37.4 °F 27.8 °F 12.2 °F 36% 30.40 in 10.0 mi NNW 17.3 mph - N/A   Clear
11:15 AM 41.0 °F 31.6 °F 10.4 °F 29% 30.41 in 10.0 mi NNW 20.7 mph 25.3 mph N/A   Clear
11:35 AM 41.0 °F 31.9 °F 10.4 °F 29% 30.40 in 10.0 mi NNW 19.6 mph 25.3 mph N/A   Clear
11:55 AM 42.8 °F 35.4 °F 12.2 °F 29% 30.41 in 10.0 mi NNW 15.0 mph 24.2 mph N/A   Clear
12:15 PM 42.8 °F 34.8 °F 12.2 °F 29% 30.39 in 10.0 mi NW 17.3 mph 21.9 mph N/A   Clear
12:35 PM 44.6 °F 37.4 °F 12.2 °F 27% 30.38 in 10.0 mi NW 16.1 mph 25.3 mph N/A   Clear
12:55 PM 44.6 °F 37.2 °F 12.2 °F 27% 30.38 in 10.0 mi NNW 17.3 mph 24.2 mph N/A   Clear
1:15 PM 44.6 °F 38.1 °F 12.2 °F 27% 30.36 in 10.0 mi NNW 13.8 mph 20.7 mph N/A   Clear
1:35 PM 46.4 °F 40.1 °F 12.2 °F 25% 30.36 in 10.0 mi NNW 15.0 mph 23.0 mph N/A   Clear
1:55 PM 46.4 °F 39.5 °F 12.2 °F 25% 30.35 in 10.0 mi North 17.3 mph 25.3 mph N/A   Clear
2:15 PM 46.4 °F 39.5 °F 12.2 °F 25% 30.33 in 10.0 mi North 17.3 mph 23.0 mph N/A   Clear
2:35 PM 48.2 °F - 12.2 °F 24% 30.34 in 10.0 mi NNW 18.4 mph 24.2 mph N/A   Clear
2:55 PM 48.2 °F - 12.2 °F 24% 30.35 in 10.0 mi NW 11.5 mph 20.7 mph N/A   Clear
3:15 PM 48.2 °F - 12.2 °F 24% 30.34 in 10.0 mi NNW 12.7 mph - N/A   Clear
3:35 PM 50.0 °F - 12.2 °F 22% 30.33 in 10.0 mi NNW 16.1 mph 23.0 mph N/A   Clear
3:55 PM 50.0 °F - 10.4 °F 20% 30.33 in 10.0 mi North 18.4 mph 23.0 mph N/A   Clear
4:15 PM 50.0 °F - 10.4 °F 20% 30.33 in 10.0 mi NNW 12.7 mph 19.6 mph N/A   Clear
4:35 PM 50.0 °F - 10.4 °F 20% 30.33 in 10.0 mi North 10.4 mph 18.4 mph N/A   Clear
4:55 PM 50.0 °F - 10.4 °F 20% 30.33 in 10.0 mi North 10.4 mph 16.1 mph N/A   Clear
5:15 PM 50.0 °F - 12.2 °F 22% 30.33 in 10.0 mi NW 11.5 mph 16.1 mph N/A   Clear
5:35 PM 48.2 °F - 10.4 °F 22% 30.33 in 10.0 mi North 9.2 mph - N/A   Clear
5:55 PM 48.2 °F - 12.2 °F 24% 30.33 in 10.0 mi NNW 10.4 mph - N/A   Clear
6:15 PM 46.4 °F 41.9 °F 12.2 °F 25% 30.33 in 10.0 mi North 9.2 mph - N/A   Clear
6:35 PM 44.6 °F 40.2 °F 15.8 °F 31% 30.34 in 10.0 mi North 8.1 mph - N/A   Clear
6:55 PM 42.8 °F 41.1 °F 14.0 °F 31% 30.34 in 10.0 mi North 3.5 mph - N/A   Clear
7:15 PM 41.0 °F 38.0 °F 19.4 °F 42% 30.35 in 10.0 mi North 4.6 mph - N/A   Clear
7:35 PM 41.0 °F 39.0 °F 17.6 °F 39% 30.35 in 10.0 mi North 3.5 mph - N/A   Clear
7:55 PM 41.0 °F - 17.6 °F 39% 30.35 in 10.0 mi Calm Calm - N/A   Clear
8:15 PM 37.4 °F 33.8 °F 19.4 °F 48% 30.35 in 10.0 mi NNE 4.6 mph - N/A   Clear
8:35 PM 37.4 °F 33.8 °F 19.4 °F 48% 30.35 in 10.0 mi NNE 4.6 mph - N/A   Clear
9:15 PM 33.8 °F 30.8 °F 23.0 °F 65% 30.36 in 10.0 mi North 3.5 mph - N/A   Clear
9:35 PM 35.6 °F 32.8 °F 21.2 °F 56% 30.36 in 10.0 mi North 3.5 mph - N/A   Clear
10:15 PM 33.8 °F - 21.2 °F 60% 30.37 in 10.0 mi Calm Calm - N/A   Clear
10:35 PM 32.0 °F 28.7 °F 21.2 °F 64% 30.37 in 10.0 mi NNE 3.5 mph - N/A   Clear
10:55 PM 32.0 °F - 23.0 °F 69% 30.38 in 10.0 mi Calm Calm - N/A   Clear
11:15 PM 32.0 °F - 21.2 °F 64% 30.38 in 10.0 mi Calm Calm - N/A   Clear
11:35 PM 28.4 °F - 21.2 °F 74% 30.39 in 10.0 mi Calm Calm - N/A   Clear
11:55 PM 28.4 °F - 21.2 °F 74% 30.38 in 10.0 mi Calm Calm - N/A   Clear